CFG5MJ LGSK-EDDM

Flight info

Callsign CFG5MJ
Flight time N/A
Altitude 38000
Route TSL UL617 MAKED DCT LONTA UL608 DOLEV DCT PETOV DCT GOLVA DCT VATET DCT REDBU Q112 NAPSA NAPSA1B
Aircraft A20N/M-SDE2E3FGHIRWXY/LB1

Departure

Time 2026-04-20 12:28
Airport Skiathos Island National Airport (LGSK)

Arrival

Time N/A
Airport Munich Airport (EDDM)
Time Latitude Longitude Altitude Speed Heading
2026-04-20 12:00 39.17828 23.50203 37 ft 0 kts 289°
2026-04-20 12:17 39.17824 23.50217 38 ft 2 kts 289°
2026-04-20 12:17 39.17818 23.50235 38 ft 2 kts 307°
2026-04-20 12:17 39.17807 23.50249 38 ft 2 kts 324°
2026-04-20 12:18 39.17794 23.50258 38 ft 2 kts 343°
2026-04-20 12:18 39.17779 23.50261 38 ft 2 kts
2026-04-20 12:18 39.17766 23.50259 38 ft 0 kts 17°
2026-04-20 12:18 39.17760 23.50256 38 ft 0 kts 20°
2026-04-20 12:21 39.17767 23.50260 38 ft 1 kts 20°
2026-04-20 12:22 39.17783 23.50267 37 ft 3 kts 20°
2026-04-20 12:22 39.17808 23.50278 37 ft 4 kts 18°
2026-04-20 12:22 39.17841 23.50292 38 ft 5 kts 18°
2026-04-20 12:22 39.17880 23.50312 38 ft 6 kts 28°
2026-04-20 12:23 39.17907 23.50361 38 ft 7 kts 76°
2026-04-20 12:23 39.17921 23.50430 37 ft 8 kts 65°
2026-04-20 12:23 39.17973 23.50475 38 ft 9 kts 21°
2026-04-20 12:23 39.18039 23.50508 38 ft 10 kts 18°
2026-04-20 12:24 39.18111 23.50538 37 ft 11 kts 18°
2026-04-20 12:24 39.18189 23.50572 37 ft 12 kts 18°
2026-04-20 12:24 39.18271 23.50608 38 ft 12 kts 19°
2026-04-20 12:24 39.18356 23.50646 37 ft 13 kts 18°
2026-04-20 12:25 39.18446 23.50671 38 ft 12 kts 356°
2026-04-20 12:25 39.18502 23.50685 38 ft 7 kts 57°
2026-04-20 12:25 39.18492 23.50718 37 ft 3 kts 168°
2026-04-20 12:25 39.18469 23.50700 38 ft 4 kts 211°
2026-04-20 12:26 39.18449 23.50690 38 ft 0 kts 199°
2026-04-20 12:27 39.18448 23.50690 38 ft 0 kts 199°
2026-04-20 12:27 39.18446 23.50689 38 ft 6 kts 199°
2026-04-20 12:27 39.18100 23.50536 38 ft 95 kts 199°
2026-04-20 12:27 39.17230 23.50157 84 ft 158 kts 197°
2026-04-20 12:28 39.16170 23.49717 719 ft 164 kts 197°
2026-04-20 12:28 39.15102 23.49273 1538 ft 164 kts 197°
2026-04-20 12:28 39.14002 23.48823 2282 ft 172 kts 192°
2026-04-20 12:28 39.12795 23.49016 2813 ft 189 kts 147°
2026-04-20 12:29 39.11997 23.50398 3357 ft 206 kts 105°
2026-04-20 12:29 39.12096 23.52278 3819 ft 224 kts 65°
2026-04-20 12:29 39.13052 23.53917 4267 ft 240 kts 47°
2026-04-20 12:29 39.14148 23.55517 5144 ft 242 kts 48°
2026-04-20 12:30 39.15243 23.57167 6093 ft 242 kts 48°
2026-04-20 12:30 39.16301 23.58801 6994 ft 241 kts 49°
2026-04-20 12:30 39.17447 23.60367 7755 ft 245 kts 31°
2026-04-20 12:30 39.19078 23.61041 8248 ft 255 kts 354°
2026-04-20 12:31 39.20815 23.60420 8775 ft 268 kts 334°
2026-04-20 12:31 39.22574 23.59459 9417 ft 280 kts 336°
2026-04-20 12:31 39.24387 23.58554 10269 ft 283 kts 337°
2026-04-20 12:31 39.26232 23.57656 10990 ft 291 kts 338°
2026-04-20 12:32 39.28143 23.56734 11782 ft 295 kts 338°
2026-04-20 12:32 39.30069 23.55806 12642 ft 297 kts 338°
2026-04-20 12:32 39.32010 23.54871 13493 ft 299 kts 338°
2026-04-20 12:32 39.33962 23.53929 14308 ft 301 kts 338°
2026-04-20 12:33 39.35920 23.52984 15071 ft 304 kts 338°
2026-04-20 12:33 39.37902 23.52026 15832 ft 307 kts 337°
2026-04-20 12:33 39.39899 23.51059 16530 ft 312 kts 337°
2026-04-20 12:33 39.41942 23.50071 17235 ft 315 kts 337°
2026-04-20 12:34 39.44015 23.49067 17960 ft 318 kts 337°
2026-04-20 12:34 39.46091 23.48063 18644 ft 321 kts 337°
2026-04-20 12:34 39.48172 23.47055 19301 ft 325 kts 337°
2026-04-20 12:34 39.50289 23.46030 19966 ft 328 kts 337°
2026-04-20 12:35 39.52438 23.44989 20638 ft 330 kts 337°
2026-04-20 12:35 39.54590 23.43944 21293 ft 333 kts 337°
2026-04-20 12:35 39.56786 23.42878 21929 ft 337 kts 337°
2026-04-20 12:35 39.58966 23.41818 22543 ft 340 kts 337°
2026-04-20 12:36 39.61205 23.40730 23154 ft 344 kts 337°
2026-04-20 12:36 39.63442 23.39641 23767 ft 346 kts 337°
2026-04-20 12:36 39.65709 23.38538 24368 ft 350 kts 337°
2026-04-20 12:36 39.67994 23.37425 24956 ft 353 kts 337°
2026-04-20 12:37 39.70310 23.36296 25519 ft 356 kts 337°
2026-04-20 12:37 39.72628 23.35165 26044 ft 359 kts 337°
2026-04-20 12:37 39.74958 23.34028 26570 ft 362 kts 337°
2026-04-20 12:37 39.77345 23.32863 27099 ft 365 kts 337°
2026-04-20 12:38 39.79751 23.31687 27602 ft 368 kts 337°
2026-04-20 12:38 39.82135 23.30519 28049 ft 371 kts 337°
2026-04-20 12:38 39.84560 23.29332 28483 ft 375 kts 337°
2026-04-20 12:38 39.87034 23.28120 28918 ft 378 kts 337°
2026-04-20 12:39 39.91964 23.25702 29745 ft 382 kts 337°
2026-04-20 12:39 39.94477 23.24467 30114 ft 385 kts 337°
2026-04-20 12:39 39.96989 23.23232 30447 ft 389 kts 337°
2026-04-20 12:40 39.99538 23.21978 30789 ft 391 kts 337°
2026-04-20 12:40 40.02092 23.20720 31086 ft 394 kts 337°
2026-04-20 12:40 40.04672 23.19450 31402 ft 395 kts 337°
2026-04-20 12:40 40.07257 23.18176 31726 ft 396 kts 337°
2026-04-20 12:41 40.09859 23.16891 32045 ft 397 kts 337°
2026-04-20 12:41 40.12089 23.15789 32316 ft 398 kts 337°
2026-04-20 12:41 40.14960 23.14371 32658 ft 399 kts 337°
2026-04-20 12:41 40.17543 23.13093 32947 ft 399 kts 337°
2026-04-20 12:42 40.20128 23.11813 33229 ft 400 kts 337°
2026-04-20 12:42 40.22754 23.10512 33536 ft 400 kts 337°
2026-04-20 12:42 40.25341 23.09229 33915 ft 398 kts 337°
2026-04-20 12:42 40.27932 23.07943 34294 ft 396 kts 337°
2026-04-20 12:43 40.30537 23.06649 34650 ft 394 kts 337°
2026-04-20 12:43 40.33098 23.05377 34912 ft 392 kts 337°
2026-04-20 12:43 40.35650 23.04107 35232 ft 391 kts 337°
2026-04-20 12:43 40.38192 23.02840 35494 ft 391 kts 337°
2026-04-20 12:44 40.40661 23.01609 35729 ft 390 kts 337°
2026-04-20 12:44 40.43190 23.00343 35959 ft 390 kts 336°
2026-04-20 12:44 40.45639 22.98986 35872 ft 390 kts 333°
2026-04-20 12:44 40.47968 22.97502 36020 ft 390 kts 331°
2026-04-20 12:45 40.50438 22.95798 36179 ft 390 kts 330°
2026-04-20 12:45 40.52851 22.94111 36397 ft 391 kts 330°
2026-04-20 12:45 40.55256 22.92425 36617 ft 391 kts 330°
2026-04-20 12:45 40.57682 22.90725 36801 ft 392 kts 330°
2026-04-20 12:46 40.60094 22.89033 36968 ft 393 kts 330°
2026-04-20 12:46 40.62505 22.87343 37126 ft 394 kts 330°
2026-04-20 12:46 40.64930 22.85639 37288 ft 395 kts 330°
2026-04-20 12:46 40.67382 22.83916 37458 ft 396 kts 330°
2026-04-20 12:47 40.69790 22.82223 37617 ft 397 kts 330°
2026-04-20 12:47 40.72226 22.80510 37767 ft 398 kts 330°
2026-04-20 12:47 40.74700 22.78766 37910 ft 399 kts 330°
2026-04-20 12:48 40.79639 22.75284 37962 ft 401 kts 330°
2026-04-20 12:48 40.84553 22.71813 37968 ft 401 kts 330°
2026-04-20 12:49 40.89481 22.68328 37966 ft 401 kts 330°
2026-04-20 12:49 40.94423 22.64824 37963 ft 400 kts 330°
2026-04-20 12:50 40.99333 22.61340 37969 ft 401 kts 330°
2026-04-20 12:50 41.10986 22.52954 37960 ft 400 kts 327°
2026-04-20 12:51 41.15611 22.48775 37961 ft 399 kts 322°
2026-04-20 12:51 41.19996 22.44143 37963 ft 399 kts 320°
2026-04-20 12:52 41.24336 22.39499 37971 ft 398 kts 320°
2026-04-20 12:52 41.28572 22.34964 37977 ft 397 kts 320°
2026-04-20 12:53 41.32874 22.30352 37981 ft 397 kts 320°
2026-04-20 12:53 41.37208 22.25700 37982 ft 397 kts 320°
2026-04-20 12:54 41.41526 22.21059 37983 ft 397 kts 320°
2026-04-20 12:54 42.11505 21.44646 38095 ft 396 kts 320°